Wind_Speed
33 33 33 34 34 34 35 35 36 38 39 39 39 39 41 41 41 40 40 41 40 40 40 40 40 40 41 41 41 41 41 41 40 40 40 41 41 41 41 41 41 40 39
31 31 32 33 34 34 35 35 36 37 37 37 37 37 38 39 40 40 40 40 40 40 40 40 40 39 39 39 39 40 40 40 40 39 39 39 39 39 39 38 38 37 37
30 30 31 31 32 33 34 35 35 35 36 36 36 36 37 38 38 39 39 39 39 40 39 39 38 38 37 37 37 37 38 38 38 37 37 37 37 37 36 35 35 35 35
29 29 29 30 30 31 32 33 34 34 35 35 36 36 36 36 36 37 38 38 38 39 38 37 36 36 36 35 35 36 36 35 35 36 36 36 36 36 35 34 34 35 35
28 28 29 29 30 31 31 31 32 33 34 34 35 35 35 36 37 37 37 37 38 37 36 35 34 34 34 34 34 34 35 35 35 34 35 35 35 35 35 34 34 34 34
29 29 29 29 30 31 31 32 32 33 33 33 34 34 35 36 36 36 37 36 36 36 36 35 34 34 34 33 33 33 33 34 34 33 34 33 34 35 35 34 34 34 34
28 29 30 30 31 31 32 33 33 33 33 34 34 35 35 36 36 36 36 36 35 35 35 35 35 34 34 33 33 33 33 33 33 33 33 32 32 33 33 33 34 33 34
28 29 29 30 31 31 32 32 33 34 34 34 35 35 35 35 35 35 35 35 34 34 35 34 34 34 33 33 33 33 32 32 33 32 32 31 31 31 31 31 32 32 32
28 28 28 29 30 30 32 32 33 33 34 34 35 34 35 35 35 34 34 34 34 34 33 33 32 32 32 32 32 32 31 31 31 31 30 30 30 29 29 29 29 29 29
28 28 29 30 30 30 31 32 33 33 34 34 34 34 34 34 34 33 33 33 33 32 32 31 30 30 30 30 30 30 29 29 30 30 30 29 28 28 28 27 27 27 27
29 29 29 30 30 30 31 32 33 34 35 35 34 33 33 32 32 32 31 31 30 30 31 31 30 30 30 29 29 28 28 28 28 28 28 28 28 27 27 25 24 24 25
29 29 30 30 30 31 31 32 32 33 33 33 32 32 31 31 31 30 30 29 29 29 29 29 29 28 28 28 28 27 26 27 27 27 27 27 27 26 25 23 22 23 24
29 30 30 30 31 32 31 30 30 30 30 30 30 30 30 30 29 29 28 28 28 28 28 28 27 27 27 27 28 27 27 27 26 26 26 26 25 24 23 23 22 23 24
29 30 30 30 30 30 30 29 29 28 29 29 29 28 28 28 28 28 27 27 27 27 27 27 27 27 27 27 27 27 27 25 25 25 26 25 25 24 23 23 23 23 24
28 28 28 28 28 28 28 27 27 27 27 27 26 26 25 25 25 26 26 25 25 25 25 25 26 26 26 26 26 26 26 25 24 24 25 25 25 24 23 22 23 23 23
26 27 27 27 27 26 25 25 25 25 24 23 22 22 21 22 22 23 23 23 23 23 23 23 23 24 24 24 24 25 25 25 24 24 24 24 24 23 23 22 22 21 22
26 26 26 25 25 24 23 22 21 22 22 21 21 20 19 19 20 21 21 21 21 21 21 21 21 22 22 22 23 23 23 23 23 23 23 22 23 23 22 21 20 20 21
25 24 24 23 23 22 21 20 19 20 19 18 18 18 17 17 18 18 19 19 19 19 19 19 19 19 20 21 21 21 21 21 21 21 21 21 21 21 20 20 19 20 21
23 23 23 22 21 20 20 19 19 18 17 17 16 16 15 15 15 16 17 18 18 17 17 17 17 18 18 19 20 19 19 19 19 20 20 20 20 20 19 19 19 19 20
22 22 21 20 19 19 19 18 18 17 17 16 15 15 14 14 14 15 16 17 17 17 17 17 17 17 18 18 18 18 17 17 17 18 18 18 19 18 18 18 18 18 18
20 20 19 19 19 18 18 17 17 17 17 16 16 15 15 14 14 15 15 15 16 17 17 17 17 17 17 18 18 18 17 17 16 16 16 16 16 17 17 17 17 18 17
19 19 19 18 17 17 16 16 16 16 16 16 16 15 15 14 14 14 14 15 15 15 16 16 16 17 17 17 18 18 17 17 17 16 16 16 16 16 16 17 17 18 17
19 18 18 18 17 16 16 16 16 16 16 16 16 16 15 15 14 14 14 14 14 15 15 15 16 16 16 17 17 17 17 17 17 17 17 16 16 17 17 17 17 18 18
18 18 18 18 18 17 17 16 16 16 16 16 16 16 15 15 15 14 14 14 15 15 15 15 15 15 16 16 16 16 16 17 17 18 17 17 17 17 17 17 17 18 18
19 19 18 18 18 18 17 17 16 16 16 16 16 16 16 15 15 15 14 14 15 15 15 15 16 16 16 16 16 16 17 17 18 18 18 17 17 17 17 17 18 18 18
19 19 19 18 18 17 17 17 17 17 17 17 17 17 17 16 16 15 15 15 16 16 16 16 17 17 17 16 16 16 17 17 17 17 17 18 18 17 18 18 18 19 19
Wind_Direction
273 272 272 271 268 267 268 269 269 269 269 269 269 268 267 265 265 265 266 267 268 269 270 271 270 270 269 268 268 268 269 270 270 270 270 271 272 274 275 274 273 272 268
275 274 273 272 270 269 269 270 270 271 272 272 270 270 268 266 266 265 265 267 268 269 270 271 270 269 268 268 268 268 268 270 270 270 269 271 271 273 274 274 273 271 267
275 275 274 272 271 271 272 271 271 272 272 272 272 272 271 269 268 266 266 267 268 269 270 269 269 269 269 269 269 268 269 270 269 269 269 269 270 272 274 273 272 270 267
275 275 274 273 272 273 274 274 273 272 273 273 273 273 272 271 270 269 268 268 268 269 269 268 268 269 269 269 269 268 269 269 269 269 268 268 270 272 273 271 271 269 267
276 274 274 274 273 274 275 277 277 276 275 274 274 273 273 273 271 270 270 270 270 270 269 268 268 269 270 269 269 269 268 268 269 269 268 269 270 272 273 271 270 270 268
277 277 276 275 275 275 277 278 279 278 277 276 276 275 274 273 272 271 270 271 271 270 269 268 269 270 270 269 268 269 268 268 269 268 268 270 272 273 272 269 270 269 267
278 278 277 276 276 276 278 278 278 278 277 276 276 276 276 275 273 271 270 270 270 269 268 267 268 268 268 267 268 269 268 267 267 266 267 269 272 274 271 269 269 267 265
280 280 279 278 278 278 278 278 278 278 278 277 277 278 277 275 273 271 270 269 269 269 267 266 266 267 266 266 266 268 267 267 267 267 267 268 271 273 271 271 269 266 266
282 282 282 281 279 279 279 280 279 278 278 277 278 278 278 276 273 271 270 268 267 267 266 265 265 265 265 265 265 265 267 267 267 267 267 269 271 270 271 270 268 267 267
283 283 283 282 280 280 281 281 281 280 279 278 279 279 278 277 274 271 270 268 266 265 264 264 264 264 264 265 265 265 266 268 269 268 267 269 271 270 271 271 269 268 268
283 284 284 282 279 280 281 281 281 280 279 278 278 277 277 275 273 271 269 269 266 264 263 263 263 264 263 264 265 266 267 269 269 267 266 268 270 270 272 271 271 270 270
283 284 284 283 282 282 283 283 282 282 281 279 277 275 274 273 272 271 269 268 265 263 262 261 261 261 262 263 263 264 266 269 269 267 266 269 269 270 270 270 270 271 271
284 284 284 284 284 284 284 283 282 282 281 279 278 275 273 273 272 271 269 267 264 262 260 260 261 260 261 262 261 262 265 268 267 266 265 266 267 266 266 267 270 272 273
284 285 284 285 286 285 284 283 282 282 281 279 279 276 274 272 271 270 267 265 263 261 259 260 260 259 260 260 261 263 265 267 267 267 266 265 265 265 264 266 269 271 272
284 285 285 285 285 285 283 283 282 282 281 280 279 276 274 272 271 269 268 265 262 260 259 259 258 256 257 259 260 262 264 266 267 268 267 264 266 266 266 267 269 269 270
284 285 285 285 284 284 283 283 283 281 280 280 279 276 272 271 269 267 266 262 260 260 259 259 257 256 257 258 260 262 264 265 266 267 266 265 264 263 264 268 268 266 268
284 283 284 285 283 283 282 283 284 281 280 280 278 276 274 271 268 266 263 260 258 257 258 258 257 257 257 259 261 262 262 262 264 267 267 265 263 261 263 266 265 263 265
285 283 283 284 283 281 280 280 282 282 280 279 278 277 275 273 268 264 259 256 255 255 257 259 258 259 259 261 263 262 261 262 264 267 267 265 262 260 262 264 264 264 265
286 284 283 283 281 279 278 278 278 279 279 276 276 276 274 273 269 263 258 255 253 254 256 259 260 262 263 263 262 262 263 265 266 267 265 265 262 259 261 262 264 266 264
285 285 284 282 278 276 276 276 275 274 275 274 272 272 271 272 271 264 259 257 255 254 256 259 262 264 264 263 262 264 265 266 266 265 265 264 259 259 260 262 265 266 265
284 283 282 281 278 276 275 274 273 270 270 271 268 268 269 270 271 265 262 258 255 255 258 262 266 267 265 264 264 265 265 263 263 265 265 265 262 260 261 263 266 266 266
283 281 279 278 278 277 277 275 272 270 269 269 266 265 267 269 269 266 262 259 257 257 260 262 266 268 267 265 264 263 262 260 261 263 265 266 264 261 262 264 265 265 265
282 281 279 276 277 277 278 276 272 268 268 267 264 263 264 265 265 265 262 260 260 260 261 262 266 269 268 266 266 265 263 263 263 263 266 266 265 263 263 264 265 265 266
281 282 279 276 275 275 276 275 272 269 268 265 261 260 260 261 261 262 261 261 262 263 263 265 268 269 269 268 267 265 265 265 264 264 265 265 263 263 263 265 266 267 267
280 281 280 277 275 274 273 272 270 268 266 264 261 259 259 259 260 262 260 260 262 264 264 265 269 272 272 269 268 266 266 265 265 265 264 263 262 263 264 266 266 267 267
281 281 279 278 275 273 271 267 266 266 265 264 262 261 261 262 263 261 260 260 262 265 266 267 270 272 273 272 268 267 267 267 268 266 263 263 263 265 267 267 266 265 265
Height
5616 5615 5615 5614 5614 5614 5613 5613 5612 5611 5611 5610 5609 5609 5608 5608 5608 5608 5608 5607 5606 5605 5605 5604 5603 5601 5600 5600 5599 5599 5598 5598 5599 5599 5597 5597 5596 5595 5593 5592 5591 5591 5590
5606 5606 5605 5604 5604 5603 5603 5602 5602 5601 5600 5599 5598 5597 5597 5597 5596 5596 5596 5596 5595 5594 5593 5592 5591 5590 5589 5588 5588 5588 5587 5587 5587 5587 5587 5586 5585 5584 5583 5582 5581 5580 5580
5597 5596 5595 5594 5594 5593 5592 5591 5591 5590 5589 5588 5587 5587 5586 5586 5585 5585 5585 5584 5584 5583 5582 5581 5581 5580 5579 5578 5577 5577 5577 5577 5576 5576 5576 5575 5575 5573 5572 5572 5571 5570 5570
5587 5587 5586 5585 5584 5583 5582 5581 5581 5580 5579 5578 5577 5576 5576 5575 5574 5574 5573 5573 5573 5572 5571 5571 5570 5570 5569 5568 5567 5567 5567 5567 5566 5566 5566 5565 5565 5564 5563 5562 5561 5561 5561
5578 5578 5577 5576 5575 5574 5573 5572 5571 5570 5568 5568 5567 5566 5566 5565 5564 5563 5563 5562 5562 5561 5561 5560 5560 5560 5559 5558 5558 5558 5558 5557 5557 5556 5556 5556 5555 5554 5553 5553 5552 5552 5552
5570 5569 5567 5566 5566 5565 5564 5563 5561 5560 5558 5557 5557 5556 5555 5554 5554 5553 5552 5552 5551 5551 5551 5550 5550 5550 5549 5549 5549 5548 5548 5548 5548 5547 5547 5547 5546 5545 5544 5543 5543 5543 5544
5561 5560 5559 5557 5556 5555 5554 5553 5552 5550 5548 5547 5546 5545 5545 5544 5543 5542 5542 5541 5541 5541 5540 5540 5540 5540 5540 5540 5539 5539 5539 5539 5539 5539 5539 5538 5538 5536 5535 5535 5534 5534 5534
5552 5551 5550 5548 5547 5546 5545 5543 5542 5540 5539 5537 5536 5535 5534 5533 5532 5532 5531 5531 5531 5531 5531 5531 5531 5531 5530 5530 5530 5530 5530 5530 5530 5530 5530 5529 5529 5528 5527 5526 5525 5525 5526
5544 5542 5540 5539 5538 5536 5535 5533 5531 5530 5528 5527 5526 5524 5523 5522 5522 5521 5521 5520 5521 5521 5521 5521 5521 5521 5521 5521 5521 5521 5521 5522 5521 5521 5521 5520 5519 5519 5518 5518 5517 5517 5518
5535 5533 5532 5530 5528 5527 5525 5524 5522 5520 5518 5517 5515 5514 5513 5512 5511 5511 5510 5510 5511 5511 5511 5512 5512 5512 5513 5512 5513 5513 5513 5513 5513 5512 5512 5511 5511 5511 5510 5510 5510 5510 5510
5526 5524 5523 5521 5519 5518 5516 5514 5512 5510 5508 5506 5505 5504 5503 5502 5501 5501 5500 5500 5501 5501 5502 5502 5503 5504 5504 5504 5505 5505 5505 5505 5504 5504 5504 5504 5503 5503 5503 5502 5502 5503 5503
5517 5515 5513 5512 5510 5508 5506 5504 5502 5500 5498 5496 5495 5494 5493 5492 5492 5492 5491 5492 5492 5492 5493 5494 5495 5495 5496 5497 5497 5497 5497 5497 5497 5496 5497 5496 5496 5496 5496 5495 5495 5495 5495
5508 5506 5504 5502 5500 5498 5496 5494 5492 5490 5488 5486 5486 5485 5484 5483 5483 5483 5483 5483 5483 5484 5485 5486 5487 5487 5488 5489 5489 5489 5489 5490 5490 5490 5490 5489 5489 5489 5489 5489 5488 5488 5488
5499 5497 5495 5493 5490 5488 5486 5484 5482 5480 5479 5477 5476 5476 5475 5475 5475 5475 5474 5475 5475 5476 5477 5478 5478 5479 5480 5481 5482 5482 5482 5482 5483 5483 5483 5482 5482 5482 5482 5482 5482 5481 5481
5490 5488 5485 5483 5481 5479 5477 5475 5474 5472 5470 5469 5468 5467 5467 5467 5466 5466 5466 5467 5468 5468 5469 5470 5470 5471 5472 5473 5474 5474 5475 5475 5475 5475 5475 5475 5475 5475 5475 5474 5474 5474 5474
5481 5479 5477 5475 5473 5471 5469 5467 5465 5464 5463 5461 5460 5459 5459 5459 5458 5459 5459 5459 5460 5461 5462 5462 5463 5464 5465 5466 5467 5467 5467 5468 5468 5468 5468 5468 5468 5468 5467 5467 5467 5467 5467
5472 5471 5469 5467 5465 5463 5461 5460 5459 5457 5455 5454 5453 5453 5452 5452 5452 5452 5452 5453 5453 5454 5455 5456 5457 5458 5459 5459 5460 5460 5461 5461 5461 5461 5461 5461 5461 5461 5461 5460 5460 5460 5460
5464 5462 5461 5459 5457 5455 5454 5453 5452 5451 5450 5449 5448 5447 5447 5446 5446 5446 5447 5447 5448 5449 5450 5450 5451 5452 5452 5453 5453 5454 5454 5454 5454 5454 5454 5454 5454 5454 5454 5454 5454 5454 5453
5456 5455 5453 5451 5450 5448 5448 5447 5446 5445 5445 5444 5444 5443 5442 5441 5441 5441 5441 5442 5443 5444 5445 5446 5446 5447 5447 5447 5448 5448 5448 5448 5448 5448 5448 5448 5448 5448 5448 5448 5448 5447 5447
5449 5447 5446 5444 5443 5442 5441 5440 5440 5439 5439 5439 5438 5438 5438 5437 5436 5436 5437 5438 5439 5439 5440 5441 5442 5442 5442 5442 5442 5442 5442 5442 5442 5442 5442 5442 5442 5442 5442 5442 5442 5442 5441
5442 5441 5439 5438 5437 5436 5435 5434 5434 5434 5433 5433 5433 5433 5433 5433 5433 5432 5433 5433 5434 5435 5436 5437 5437 5437 5437 5437 5437 5437 5437 5437 5437 5437 5437 5437 5437 5437 5437 5437 5436 5436 5436
5436 5434 5433 5432 5431 5430 5429 5429 5428 5428 5428 5428 5428 5428 5428 5428 5428 5428 5429 5429 5430 5431 5431 5432 5432 5432 5432 5432 5432 5432 5432 5432 5432 5432 5432 5432 5432 5432 5431 5431 5431 5431 5431
5429 5428 5427 5426 5425 5425 5424 5423 5423 5423 5423 5423 5423 5423 5423 5424 5424 5424 5425 5425 5426 5426 5427 5428 5428 5428 5427 5427 5427 5427 5427 5427 5427 5427 5427 5427 5427 5426 5426 5426 5426 5426 5426
5423 5422 5421 5420 5419 5419 5418 5418 5417 5417 5417 5418 5418 5418 5418 5419 5420 5420 5420 5421 5421 5422 5422 5423 5423 5423 5423 5422 5422 5422 5422 5422 5422 5422 5422 5422 5421 5421 5421 5421 5420 5420 5420
5417 5416 5415 5414 5413 5413 5412 5412 5412 5412 5412 5412 5412 5413 5413 5414 5415 5415 5416 5416 5417 5417 5418 5418 5418 5418 5418 5417 5417 5417 5417 5417 5417 5416 5416 5416 5416 5416 5415 5415 5415 5415 5414
5411 5409 5409 5408 5407 5406 5406 5406 5406 5406 5406 5406 5407 5407 5408 5409 5410 5410 5411 5411 5412 5413 5413 5413 5413 5413 5413 5412 5412 5412 5412 5412 5411 5411 5411 5410 5410 5410 5410 5409 5409 5409 5409